Temperature
15 15 15 15 16 16 16 16 16 17 17 17 17 17 17 17 17 17 17 17 17 17 17 17 17 17 17 16 16 16 16 16 16 16 15 15 15 15 15 15 15 15 14
15 15 15 15 16 16 16 16 16 17 17 17 17 17 17 17 17 17 17 17 17 17 17 17 17 17 17 16 16 16 16 16 16 16 16 15 15 15 15 15 15 14 14
14 14 15 15 15 16 16 16 16 16 16 17 17 17 17 17 17 17 17 17 17 17 16 16 16 16 16 16 16 16 16 16 16 15 15 15 15 15 15 14 14 14 14
14 14 14 15 15 15 16 16 16 16 16 16 16 16 16 16 16 16 16 16 16 16 16 16 16 16 16 16 16 16 16 16 16 15 15 15 15 15 14 14 14 14 14
14 14 14 14 15 15 15 15 15 16 16 16 16 16 16 16 16 16 16 16 16 16 16 16 16 16 16 16 16 16 16 16 15 15 15 15 15 15 14 14 14 14 14
14 14 14 14 14 14 15 15 15 15 15 15 15 16 16 16 16 16 16 16 16 16 16 16 16 16 16 16 16 16 16 16 15 15 15 15 15 15 14 14 14 14 14
14 14 14 14 14 14 14 14 14 14 15 15 15 15 15 15 15 15 15 15 15 16 16 16 15 15 15 15 15 15 15 15 15 15 15 15 15 14 14 14 14 14 14
13 13 13 14 14 14 14 14 14 14 14 14 14 14 15 15 15 15 15 15 15 15 15 15 15 15 15 15 15 15 15 15 15 15 15 14 14 14 14 14 14 14 14
13 13 13 13 13 13 13 13 13 13 13 14 14 14 14 14 14 14 14 14 14 15 15 15 15 15 15 15 15 15 15 14 14 14 14 14 14 14 14 14 14 14 14
13 13 13 13 13 13 13 13 13 13 13 13 13 13 13 14 14 14 14 14 14 14 14 14 15 15 15 15 14 14 14 14 14 14 14 14 14 14 14 14 13 13 13
12 12 12 12 12 12 12 12 12 12 12 12 13 13 13 13 13 13 13 13 13 14 14 14 14 14 14 14 14 14 14 14 14 14 14 14 14 13 14 13 13 13 13
12 12 12 12 12 12 12 12 12 12 12 12 12 12 12 12 12 13 13 13 13 13 13 13 13 13 14 14 14 14 14 13 13 13 13 13 13 13 13 13 13 13 13
12 11 11 11 11 11 11 11 11 11 11 11 11 11 12 12 12 12 12 12 12 12 13 13 13 13 13 13 13 13 13 13 13 13 13 13 13 13 13 13 13 13 13
11 11 11 11 11 11 11 11 11 11 11 11 11 11 11 11 11 11 12 12 12 12 12 12 12 12 12 12 13 13 13 12 12 12 12 12 13 12 12 13 12 12 12
11 11 11 11 11 10 10 10 10 10 10 10 10 10 10 10 10 11 11 11 11 11 11 11 11 11 12 12 12 12 12 12 12 12 12 12 12 12 12 12 12 12 12
11 11 10 10 10 10 10 10 10 9 9 9 9 9 10 10 10 10 10 10 10 10 10 10 11 11 11 11 11 11 11 11 11 11 11 11 11 12 12 12 12 11 12
11 10 10 10 10 10 10 9 9 9 9 9 9 9 9 9 9 9 9 9 9 10 10 10 10 10 10 10 10 10 10 11 11 11 11 11 11 11 11 11 11 11 11
10 10 10 10 9 9 9 9 9 9 9 9 9 9 9 8 8 9 9 9 9 9 9 9 9 9 10 10 10 10 10 10 10 10 10 10 10 10 10 10 10 11 11
10 10 9 9 9 9 9 9 8 8 8 8 8 8 8 8 8 8 8 8 8 8 8 8 8 8 9 9 9 9 9 9 10 10 10 10 10 10 10 10 10 10 10
10 9 9 9 9 9 9 8 8 8 8 8 8 8 8 8 7 7 7 7 8 8 8 8 8 8 8 8 8 8 9 9 9 9 9 9 9 9 9 10 10 10 10
9 9 9 9 9 8 8 8 8 8 8 8 8 7 7 7 7 7 7 7 7 7 7 7 7 7 7 7 7 7 8 8 8 9 9 9 9 9 9 9 9 9 9
9 9 9 8 8 8 8 8 8 8 8 8 7 7 7 7 7 7 6 6 6 6 7 7 6 6 6 6 6 5 6 7 7 8 8 8 8 9 9 9 9 9 9
9 9 9 8 8 8 8 8 8 7 7 7 7 7 7 7 6 6 6 6 6 6 6 6 6 6 6 6 5 5 5 5 6 7 7 7 8 8 8 8 8 8 8
9 9 8 8 8 8 7 7 7 7 7 7 7 7 6 6 6 6 6 6 5 5 5 5 5 5 5 5 5 5 5 5 4 5 6 6 7 7 7 7 8 8 8
9 8 8 8 8 7 7 7 7 7 6 6 6 6 6 6 6 6 5 5 5 5 5 5 5 5 5 5 4 4 4 4 4 4 4 5 6 6 7 7 7 7 7
8 8 8 8 8 7 7 7 7 6 6 6 6 6 6 5 5 5 5 5 5 5 5 5 5 4 4 4 4 4 4 4 4 4 4 4 5 6 6 6 6 7 7
Wind_Speed
2 4 4 7 9 10 10 10 10 9 10 10 9 9 8 7 6 5 4 5 5 5 5 5 5 5 6 6 7 8 7 7 8 8 8 8 8 8 8 8 8 7 9
2 2 5 8 9 10 11 11 11 10 9 9 9 8 8 7 6 5 4 4 4 4 3 3 4 4 5 5 6 7 7 7 7 7 8 8 8 8 8 8 8 7 9
1 3 6 9 10 10 11 11 11 11 10 9 9 8 7 7 6 5 4 4 4 3 2 2 3 3 5 5 6 6 6 7 7 7 7 6 7 8 8 8 8 8 9
3 5 6 9 10 10 10 11 11 11 11 11 9 8 8 7 7 6 5 4 3 3 2 2 2 2 4 5 5 5 5 6 7 7 6 5 6 7 8 8 8 9 9
4 5 6 9 10 10 10 11 11 11 11 11 11 10 8 7 7 7 6 5 4 3 3 2 2 2 2 3 4 5 5 6 6 7 6 5 6 7 7 8 8 9 9
4 6 6 9 9 10 10 11 11 11 11 11 11 11 10 8 7 6 7 6 5 4 3 2 2 1 2 2 3 4 5 5 6 6 6 6 6 7 7 8 8 8 9
4 5 7 9 9 10 10 10 11 11 11 11 11 10 10 10 9 7 7 6 5 4 4 3 2 1 1 1 2 3 4 4 5 6 5 6 6 7 8 8 8 9 10
4 5 7 8 9 9 9 10 11 11 11 11 11 11 11 10 10 9 7 7 7 5 4 4 3 3 2 0 1 2 2 3 4 5 5 6 7 7 7 8 9 9 10
5 5 6 7 7 8 9 9 10 10 10 11 11 11 11 11 11 10 9 8 7 7 6 5 5 4 3 1 0 1 2 2 3 4 5 6 8 8 8 8 8 9 10
4 4 4 6 6 6 7 8 8 9 9 10 10 11 11 11 10 10 10 9 7 6 6 6 5 5 5 3 1 1 1 2 3 4 5 6 8 9 9 9 9 9 10
3 2 2 3 4 5 5 6 7 7 8 8 8 9 9 9 8 8 9 9 8 7 6 5 5 5 5 4 2 1 1 1 3 4 5 7 9 9 9 9 9 10 9
1 1 1 1 2 3 3 4 5 5 6 6 6 7 7 7 7 8 8 8 8 7 6 5 5 4 4 4 3 1 0 1 2 3 5 8 10 10 10 10 10 10 11
2 1 1 0 1 2 2 3 3 4 4 5 6 6 6 6 6 7 6 6 6 6 5 5 4 4 3 3 3 2 1 1 2 3 6 8 10 11 11 11 11 11 11
3 3 2 1 0 0 1 1 2 2 3 3 4 4 4 3 3 4 4 5 5 4 4 3 3 3 3 3 3 2 2 2 2 4 6 8 10 11 11 11 11 11 11
4 4 3 2 1 1 0 0 1 1 1 2 3 3 3 2 2 3 3 3 4 3 3 3 2 2 2 2 3 3 3 3 4 4 5 8 9 10 11 12 11 12 12
5 5 3 3 2 1 1 1 1 1 1 2 2 3 3 2 2 2 3 3 3 3 2 2 2 2 3 3 3 4 4 4 4 4 5 7 8 9 10 11 12 12 12
6 5 4 3 2 2 2 2 1 1 1 2 3 3 3 3 2 2 3 3 4 4 3 2 3 2 3 3 4 4 4 4 5 5 5 5 6 8 10 11 12 12 12
5 4 4 3 2 2 3 2 2 2 2 2 3 4 4 4 3 2 3 4 4 4 2 2 2 2 3 3 4 4 4 4 6 5 5 5 5 6 8 10 11 12 13
6 5 4 3 3 3 3 2 2 2 2 3 4 4 4 5 4 3 3 4 4 3 2 3 2 2 3 4 4 4 4 5 5 5 5 5 5 6 6 9 11 12 13
4 4 4 3 3 2 1 1 2 2 3 3 4 5 6 5 5 4 4 4 4 3 3 2 3 3 3 4 5 5 5 5 5 5 6 6 6 6 6 7 7 9 12
3 3 4 3 3 2 1 1 2 3 3 3 4 6 6 6 5 4 5 4 4 4 4 4 3 3 3 2 2 4 5 5 6 6 5 6 6 7 7 7 7 7 7
4 4 4 4 4 3 3 2 2 3 3 3 4 5 6 6 6 5 5 5 5 4 4 4 3 3 3 1 1 2 3 4 3 5 5 6 6 5 6 7 7 7 7
5 5 5 5 5 4 3 2 2 1 2 2 3 4 4 6 6 6 6 5 5 4 5 4 4 4 4 3 3 3 2 4 4 3 5 6 5 4 5 5 7 8 9
7 5 5 5 5 4 3 2 3 3 4 5 4 4 5 5 6 6 6 6 5 5 5 5 5 5 5 5 3 4 5 4 3 4 3 3 5 6 6 6 6 7 9
5 4 4 4 4 4 4 4 4 5 5 5 4 5 6 5 6 7 6 6 6 5 6 6 6 6 6 6 5 4 4 5 5 5 7 5 4 5 6 6 6 6 8
3 3 3 4 5 4 4 4 5 6 6 6 6 6 6 5 5 6 6 6 6 6 7 7 7 7 8 8 7 6 5 5 5 5 7 7 7 6 6 6 7 7 7
Wind_Direction
290 308 23 53 53 51 51 52 57 57 56 55 56 59 62 66 72 82 93 104 111 122 131 142 144 148 146 148 152 153 154 148 146 149 152 150 144 140 136 132 131 130 134
220 329 58 61 59 54 52 50 49 50 52 53 53 55 57 58 60 67 81 90 101 113 124 138 141 145 149 149 149 156 160 157 150 148 151 150 150 148 145 144 147 146 145
93 51 64 66 64 60 54 51 49 46 44 45 47 48 50 51 50 53 66 74 81 97 112 121 136 146 148 146 147 153 162 164 160 153 144 145 155 162 158 156 158 156 153
84 64 67 69 65 61 56 51 48 46 43 40 38 40 43 44 42 41 49 60 65 68 75 89 111 130 146 152 153 157 162 162 164 154 146 155 166 172 171 169 170 167 163
70 61 68 72 66 61 56 50 47 46 43 40 37 34 33 34 36 37 35 44 49 53 55 67 92 104 132 152 161 165 166 167 163 159 157 163 175 182 182 179 178 176 175
72 58 64 73 68 63 57 50 47 45 44 40 37 33 30 25 24 28 29 33 39 39 42 50 64 84 104 142 159 173 174 168 163 161 164 174 185 191 193 189 188 186 184
86 58 62 72 69 63 57 51 48 45 43 40 36 33 29 25 19 15 22 23 26 29 27 31 36 44 92 103 138 161 172 171 165 164 171 185 196 198 203 199 195 196 191
94 61 59 70 66 61 57 52 48 44 41 38 34 31 28 25 21 19 16 18 20 19 13 21 27 21 15 41 147 134 145 152 172 174 182 193 203 205 207 208 202 201 199
74 67 57 60 60 61 58 52 47 43 41 38 34 31 28 25 22 19 16 15 18 20 18 23 28 21 10 356 120 153 156 157 160 182 197 205 215 216 215 215 213 209 206
57 54 52 53 56 55 54 51 47 42 39 37 34 31 27 23 18 15 12 7 9 12 16 21 25 23 15 2 352 89 119 158 186 194 206 218 224 223 221 223 222 215 212
43 33 44 46 46 51 54 51 44 40 37 34 31 28 24 20 13 10 7 4 1 3 6 11 16 16 14 2 337 10 103 172 206 209 214 226 230 231 227 227 228 224 219
221 317 22 41 37 44 46 42 40 37 35 34 30 26 24 19 11 5 0 359 356 357 0 358 3 13 17 5 352 12 187 243 221 225 229 236 236 237 234 231 230 229 224
208 233 266 281 45 54 48 40 34 31 27 25 22 20 21 19 11 6 4 354 349 352 359 348 355 8 5 3 358 345 292 241 247 251 245 245 245 244 242 235 233 232 227
204 227 243 226 137 65 52 34 31 28 19 13 5 7 19 19 7 1 0 350 352 348 348 349 350 347 348 345 336 318 299 269 259 262 256 252 253 255 250 240 235 234 231
212 230 237 225 209 199 81 358 33 5 343 337 345 349 4 4 336 340 338 342 336 337 337 324 322 314 307 314 317 299 280 276 270 265 266 262 259 258 257 248 241 240 239
218 226 230 222 218 193 220 243 260 292 303 327 326 316 325 339 320 323 319 319 316 317 310 302 283 276 274 271 280 278 271 268 267 265 269 266 265 266 262 255 249 245 244
218 220 220 221 210 207 228 244 251 276 304 305 302 304 304 306 300 297 301 302 305 306 300 301 296 278 278 275 272 270 265 259 256 256 259 260 257 263 266 263 259 253 248
209 214 222 221 206 222 234 246 254 273 289 287 288 293 289 288 290 289 286 289 302 304 289 270 273 275 277 280 273 271 266 257 253 247 246 251 250 258 262 265 263 260 255
204 206 215 220 217 227 237 252 259 275 278 283 288 287 282 278 278 272 271 282 296 290 270 270 273 257 267 281 276 269 262 254 251 249 240 243 243 249 254 260 262 260 260
201 204 210 220 223 223 245 283 294 288 278 282 280 279 275 275 272 271 270 275 278 276 272 262 265 260 255 267 279 280 269 259 246 241 239 242 243 245 248 254 255 258 257
198 205 211 214 228 212 244 264 272 273 274 275 270 272 270 268 267 263 267 270 261 259 263 257 257 262 264 258 290 295 283 257 245 241 238 236 239 243 243 246 247 248 254
209 216 218 223 232 231 232 236 236 247 259 264 271 277 271 270 271 268 256 261 256 255 262 256 241 254 262 228 237 293 307 298 258 244 238 235 237 235 239 250 242 240 245
224 223 226 235 240 244 240 257 291 303 302 290 280 275 269 272 271 264 260 257 257 246 253 255 239 236 250 243 214 213 248 265 299 259 236 239 234 234 241 241 245 242 242
228 230 237 246 246 248 238 235 240 254 266 263 267 271 278 272 270 266 257 252 252 250 252 255 249 232 235 246 243 232 232 238 259 294 275 253 252 242 239 249 247 249 241
223 229 246 256 258 256 248 236 241 254 260 272 278 278 280 277 270 266 260 253 251 249 250 250 253 241 233 234 235 239 242 246 238 250 276 278 271 251 243 243 242 242 248
232 238 250 257 264 262 256 249 240 250 262 275 279 278 278 276 271 265 262 254 254 251 249 249 248 245 238 235 235 234 236 238 231 238 258 268 273 267 256 248 240 238 244
Height
1502 1502 1503 1504 1504 1504 1505 1505 1506 1506 1506 1507 1507 1508 1508 1508 1509 1509 1510 1510 1511 1512 1512 1513 1514 1514 1515 1515 1516 1516 1517 1517 1518 1518 1519 1519 1520 1520 1520 1520 1521 1521 1522
1501 1502 1503 1503 1504 1504 1505 1505 1505 1506 1506 1506 1507 1507 1507 1508 1508 1508 1509 1509 1510 1511 1511 1512 1513 1513 1514 1514 1515 1516 1516 1517 1517 1518 1518 1519 1519 1520 1520 1520 1520 1521 1521
1501 1502 1502 1503 1503 1504 1504 1504 1505 1505 1505 1505 1506 1506 1506 1506 1507 1507 1508 1508 1509 1509 1510 1511 1512 1512 1513 1513 1514 1514 1515 1516 1516 1517 1518 1518 1519 1519 1519 1520 1520 1521 1521
1500 1501 1502 1503 1503 1503 1504 1504 1504 1504 1504 1504 1504 1505 1505 1505 1505 1506 1506 1506 1507 1508 1509 1509 1510 1511 1512 1512 1513 1513 1514 1514 1515 1516 1517 1517 1518 1518 1519 1519 1520 1520 1521
1500 1501 1501 1502 1502 1502 1502 1502 1503 1503 1503 1503 1503 1503 1503 1503 1504 1504 1505 1505 1506 1506 1507 1508 1508 1509 1510 1510 1511 1511 1512 1513 1513 1514 1515 1516 1517 1518 1518 1518 1519 1519 1520
1499 1500 1501 1501 1501 1501 1501 1501 1501 1501 1501 1501 1501 1501 1501 1502 1502 1502 1503 1503 1504 1504 1505 1506 1506 1507 1508 1508 1509 1509 1510 1511 1512 1512 1513 1514 1515 1516 1517 1517 1518 1518 1519
1499 1499 1500 1500 1500 1500 1500 1500 1500 1499 1499 1499 1499 1499 1499 1499 1500 1500 1501 1501 1502 1502 1503 1504 1504 1505 1506 1506 1507 1507 1508 1509 1509 1510 1511 1512 1513 1514 1515 1515 1516 1517 1517
1498 1498 1499 1499 1499 1499 1498 1498 1498 1498 1498 1497 1497 1497 1497 1497 1498 1498 1498 1499 1499 1500 1501 1501 1502 1502 1503 1504 1504 1505 1506 1506 1507 1508 1509 1510 1511 1512 1513 1513 1514 1515 1516
1497 1497 1497 1497 1497 1497 1497 1496 1496 1496 1496 1495 1495 1495 1495 1495 1495 1496 1496 1496 1497 1497 1498 1499 1499 1500 1500 1501 1501 1502 1503 1504 1504 1505 1506 1507 1509 1510 1510 1511 1512 1513 1513
1496 1496 1496 1496 1496 1496 1495 1495 1494 1494 1493 1493 1493 1493 1493 1493 1493 1493 1493 1494 1494 1495 1495 1495 1496 1497 1497 1498 1498 1499 1500 1501 1502 1503 1503 1504 1506 1507 1507 1508 1509 1510 1510
1494 1494 1494 1494 1494 1494 1493 1493 1492 1492 1491 1491 1491 1490 1490 1490 1490 1490 1491 1491 1491 1492 1492 1492 1493 1494 1494 1495 1495 1496 1497 1497 1498 1499 1500 1501 1502 1503 1504 1505 1506 1506 1507
1492 1492 1493 1492 1492 1492 1492 1491 1490 1490 1489 1489 1488 1488 1488 1488 1488 1488 1488 1488 1488 1488 1489 1489 1490 1490 1491 1491 1492 1493 1493 1493 1494 1495 1496 1498 1499 1500 1500 1501 1502 1503 1504
1490 1491 1491 1491 1490 1490 1489 1489 1488 1487 1487 1487 1486 1486 1485 1485 1485 1485 1485 1485 1485 1485 1485 1485 1486 1486 1487 1487 1488 1488 1489 1490 1490 1491 1492 1493 1494 1495 1496 1497 1498 1499 1500
1488 1489 1489 1489 1488 1488 1487 1486 1486 1485 1484 1484 1484 1483 1483 1482 1482 1482 1482 1481 1481 1481 1481 1481 1481 1482 1483 1483 1484 1484 1485 1485 1486 1487 1488 1489 1490 1491 1492 1493 1494 1495 1496
1486 1486 1486 1486 1486 1486 1485 1484 1483 1482 1482 1481 1481 1480 1480 1479 1479 1478 1478 1478 1478 1478 1478 1477 1477 1478 1478 1479 1479 1480 1480 1481 1482 1482 1483 1484 1485 1486 1487 1488 1489 1490 1491
1483 1484 1484 1484 1484 1484 1483 1482 1481 1480 1480 1479 1478 1478 1477 1476 1476 1475 1475 1475 1474 1474 1474 1473 1473 1473 1473 1474 1474 1475 1476 1476 1477 1477 1478 1479 1480 1481 1482 1483 1484 1485 1486
1480 1481 1481 1481 1481 1481 1481 1480 1479 1478 1477 1476 1476 1475 1474 1473 1472 1472 1471 1471 1471 1470 1470 1469 1469 1469 1469 1469 1469 1470 1470 1471 1471 1472 1473 1474 1475 1476 1477 1478 1478 1479 1480
1477 1478 1478 1479 1479 1478 1478 1477 1476 1476 1475 1474 1473 1472 1471 1470 1469 1468 1467 1467 1467 1466 1465 1465 1465 1464 1464 1464 1464 1464 1465 1465 1466 1467 1467 1468 1469 1470 1471 1472 1473 1474 1475
1474 1474 1475 1476 1476 1475 1475 1474 1474 1473 1472 1471 1470 1469 1468 1467 1466 1465 1464 1463 1463 1462 1461 1461 1460 1460 1459 1459 1459 1459 1459 1460 1460 1461 1461 1462 1463 1464 1466 1467 1468 1469 1470
1471 1471 1472 1472 1472 1472 1472 1471 1470 1470 1469 1468 1466 1465 1464 1463 1462 1461 1459 1459 1458 1457 1457 1456 1456 1455 1455 1454 1454 1453 1454 1454 1454 1455 1455 1456 1457 1458 1459 1461 1462 1463 1464
1467 1468 1468 1469 1469 1469 1468 1467 1466 1465 1464 1464 1463 1461 1460 1459 1458 1456 1455 1454 1454 1453 1452 1452 1451 1451 1450 1450 1449 1448 1448 1448 1448 1449 1449 1450 1451 1452 1453 1455 1456 1457 1458
1464 1464 1465 1465 1465 1465 1465 1464 1463 1462 1460 1459 1458 1457 1456 1455 1454 1452 1451 1450 1449 1448 1448 1447 1447 1446 1446 1446 1446 1444 1443 1442 1441 1442 1443 1444 1445 1447 1447 1449 1450 1451 1452
1460 1461 1461 1462 1462 1462 1461 1460 1459 1458 1456 1455 1454 1453 1452 1451 1449 1448 1447 1446 1444 1444 1443 1443 1442 1442 1441 1442 1443 1443 1441 1438 1436 1435 1436 1437 1438 1439 1441 1442 1443 1445 1446
1457 1458 1458 1458 1458 1458 1457 1456 1455 1453 1452 1450 1449 1448 1447 1446 1445 1443 1442 1441 1440 1439 1438 1438 1438 1437 1437 1436 1438 1438 1438 1437 1435 1430 1430 1432 1432 1433 1434 1436 1437 1438 1439
1454 1455 1455 1455 1455 1454 1453 1452 1451 1449 1448 1446 1445 1443 1442 1441 1440 1439 1437 1436 1435 1434 1433 1433 1432 1432 1432 1431 1431 1432 1432 1432 1430 1429 1424 1424 1426 1426 1427 1429 1430 1431 1433
1450 1451 1451 1451 1450 1450 1449 1448 1446 1445 1443 1442 1440 1438 1437 1435 1434 1433 1432 1431 1430 1429 1428 1427 1427 1426 1426 1425 1426 1426 1426 1426 1424 1424 1421 1419 1419 1420 1421 1422 1423 1424 1426